Index of /20260504/WXO-DD/model_rdps/10km/00/044
Name Last modified Size Description
Parent Directory -
20260504T00Z_MSC_RDPS_AbsoluteVorticity_IsbL-0250_RLatLon0.09_PT044H.grib2 2026-05-04 02:55 748K
20260504T00Z_MSC_RDPS_AbsoluteVorticity_IsbL-0500_RLatLon0.09_PT044H.grib2 2026-05-04 02:55 563K
20260504T00Z_MSC_RDPS_AbsoluteVorticity_IsbL-0700_RLatLon0.09_PT044H.grib2 2026-05-04 02:55 625K
20260504T00Z_MSC_RDPS_AbsoluteVorticity_IsbL-0850_RLatLon0.09_PT044H.grib2 2026-05-04 02:55 793K
20260504T00Z_MSC_RDPS_AirTemp_AGL-120m_RLatLon0.09_PT044H.grib2 2026-05-04 02:55 394K
20260504T00Z_MSC_RDPS_AirTemp_AGL-2m_RLatLon0.09_PT044H.grib2 2026-05-04 02:55 629K
20260504T00Z_MSC_RDPS_AirTemp_AGL-40m_RLatLon0.09_PT044H.grib2 2026-05-04 02:55 403K
20260504T00Z_MSC_RDPS_AirTemp_AGL-80m_RLatLon0.09_PT044H.grib2 2026-05-04 02:55 398K
20260504T00Z_MSC_RDPS_AirTemp_IsbL-0001_RLatLon0.09_PT044H.grib2 2026-05-04 02:55 324K
20260504T00Z_MSC_RDPS_AirTemp_IsbL-0005_RLatLon0.09_PT044H.grib2 2026-05-04 02:55 293K
20260504T00Z_MSC_RDPS_AirTemp_IsbL-0010_RLatLon0.09_PT044H.grib2 2026-05-04 02:55 304K
20260504T00Z_MSC_RDPS_AirTemp_IsbL-0020_RLatLon0.09_PT044H.grib2 2026-05-04 02:55 319K
20260504T00Z_MSC_RDPS_AirTemp_IsbL-0030_RLatLon0.09_PT044H.grib2 2026-05-04 02:55 338K
20260504T00Z_MSC_RDPS_AirTemp_IsbL-0050_RLatLon0.09_PT044H.grib2 2026-05-04 02:55 317K
20260504T00Z_MSC_RDPS_AirTemp_IsbL-0100_RLatLon0.09_PT044H.grib2 2026-05-04 02:55 427K
20260504T00Z_MSC_RDPS_AirTemp_IsbL-0150_RLatLon0.09_PT044H.grib2 2026-05-04 02:55 424K
20260504T00Z_MSC_RDPS_AirTemp_IsbL-0175_RLatLon0.09_PT044H.grib2 2026-05-04 02:55 415K
20260504T00Z_MSC_RDPS_AirTemp_IsbL-0200_RLatLon0.09_PT044H.grib2 2026-05-04 02:55 416K
20260504T00Z_MSC_RDPS_AirTemp_IsbL-0225_RLatLon0.09_PT044H.grib2 2026-05-04 02:55 413K
20260504T00Z_MSC_RDPS_AirTemp_IsbL-0250_RLatLon0.09_PT044H.grib2 2026-05-04 02:55 419K
20260504T00Z_MSC_RDPS_AirTemp_IsbL-0275_RLatLon0.09_PT044H.grib2 2026-05-04 02:55 401K
20260504T00Z_MSC_RDPS_AirTemp_IsbL-0300_RLatLon0.09_PT044H.grib2 2026-05-04 02:55 410K
20260504T00Z_MSC_RDPS_AirTemp_IsbL-0350_RLatLon0.09_PT044H.grib2 2026-05-04 02:55 427K
20260504T00Z_MSC_RDPS_AirTemp_IsbL-0400_RLatLon0.09_PT044H.grib2 2026-05-04 02:55 430K
20260504T00Z_MSC_RDPS_AirTemp_IsbL-0450_RLatLon0.09_PT044H.grib2 2026-05-04 02:55 437K
20260504T00Z_MSC_RDPS_AirTemp_IsbL-0500_RLatLon0.09_PT044H.grib2 2026-05-04 02:55 448K
20260504T00Z_MSC_RDPS_AirTemp_IsbL-0550_RLatLon0.09_PT044H.grib2 2026-05-04 02:55 467K
20260504T00Z_MSC_RDPS_AirTemp_IsbL-0600_RLatLon0.09_PT044H.grib2 2026-05-04 02:55 449K
20260504T00Z_MSC_RDPS_AirTemp_IsbL-0650_RLatLon0.09_PT044H.grib2 2026-05-04 02:55 466K
20260504T00Z_MSC_RDPS_AirTemp_IsbL-0700_RLatLon0.09_PT044H.grib2 2026-05-04 02:55 492K
20260504T00Z_MSC_RDPS_AirTemp_IsbL-0750_RLatLon0.09_PT044H.grib2 2026-05-04 02:55 420K
20260504T00Z_MSC_RDPS_AirTemp_IsbL-0800_RLatLon0.09_PT044H.grib2 2026-05-04 02:55 462K
20260504T00Z_MSC_RDPS_AirTemp_IsbL-0850_RLatLon0.09_PT044H.grib2 2026-05-04 02:55 512K
20260504T00Z_MSC_RDPS_AirTemp_IsbL-0875_RLatLon0.09_PT044H.grib2 2026-05-04 02:55 531K
20260504T00Z_MSC_RDPS_AirTemp_IsbL-0900_RLatLon0.09_PT044H.grib2 2026-05-04 02:55 539K
20260504T00Z_MSC_RDPS_AirTemp_IsbL-0925_RLatLon0.09_PT044H.grib2 2026-05-04 02:55 534K
20260504T00Z_MSC_RDPS_AirTemp_IsbL-0950_RLatLon0.09_PT044H.grib2 2026-05-04 02:55 530K
20260504T00Z_MSC_RDPS_AirTemp_IsbL-0970_RLatLon0.09_PT044H.grib2 2026-05-04 02:55 524K
20260504T00Z_MSC_RDPS_AirTemp_IsbL-0985_RLatLon0.09_PT044H.grib2 2026-05-04 02:55 512K
20260504T00Z_MSC_RDPS_AirTemp_IsbL-1000_RLatLon0.09_PT044H.grib2 2026-05-04 02:55 496K
20260504T00Z_MSC_RDPS_AirTemp_IsbL-1015_RLatLon0.09_PT044H.grib2 2026-05-04 02:55 515K
20260504T00Z_MSC_RDPS_Albedo_Sfc_RLatLon0.09_PT044H.grib2 2026-05-04 02:55 162K
20260504T00Z_MSC_RDPS_CAPE_Sfc_RLatLon0.09_PT044H.grib2 2026-05-04 02:55 1.8M
20260504T00Z_MSC_RDPS_CIN_Sfc_RLatLon0.09_PT044H.grib2 2026-05-04 02:55 1.2M
20260504T00Z_MSC_RDPS_CloudWater_EAtm_RLatLon0.09_PT044H.grib2 2026-05-04 02:55 223K
20260504T00Z_MSC_RDPS_ConvectivePrecip-Accum_Sfc_RLatLon0.09_PT044H.grib2 2026-05-04 02:55 1.0M
20260504T00Z_MSC_RDPS_DewPointDepression_AGL-2m_RLatLon0.09_PT044H.grib2 2026-05-04 02:55 423K
20260504T00Z_MSC_RDPS_DewPointDepression_IsbL-0001_RLatLon0.09_PT044H.grib2 2026-05-04 02:55 193
20260504T00Z_MSC_RDPS_DewPointDepression_IsbL-0005_RLatLon0.09_PT044H.grib2 2026-05-04 02:55 193
20260504T00Z_MSC_RDPS_DewPointDepression_IsbL-0010_RLatLon0.09_PT044H.grib2 2026-05-04 02:55 193
20260504T00Z_MSC_RDPS_DewPointDepression_IsbL-0020_RLatLon0.09_PT044H.grib2 2026-05-04 02:55 193
20260504T00Z_MSC_RDPS_DewPointDepression_IsbL-0030_RLatLon0.09_PT044H.grib2 2026-05-04 02:55 193
20260504T00Z_MSC_RDPS_DewPointDepression_IsbL-0050_RLatLon0.09_PT044H.grib2 2026-05-04 02:55 78K
20260504T00Z_MSC_RDPS_DewPointDepression_IsbL-0100_RLatLon0.09_PT044H.grib2 2026-05-04 02:55 114K
20260504T00Z_MSC_RDPS_DewPointDepression_IsbL-0150_RLatLon0.09_PT044H.grib2 2026-05-04 02:55 148K
20260504T00Z_MSC_RDPS_DewPointDepression_IsbL-0175_RLatLon0.09_PT044H.grib2 2026-05-04 02:55 188K
20260504T00Z_MSC_RDPS_DewPointDepression_IsbL-0200_RLatLon0.09_PT044H.grib2 2026-05-04 02:55 225K
20260504T00Z_MSC_RDPS_DewPointDepression_IsbL-0225_RLatLon0.09_PT044H.grib2 2026-05-04 02:55 257K
20260504T00Z_MSC_RDPS_DewPointDepression_IsbL-0250_RLatLon0.09_PT044H.grib2 2026-05-04 02:55 298K
20260504T00Z_MSC_RDPS_DewPointDepression_IsbL-0275_RLatLon0.09_PT044H.grib2 2026-05-04 02:55 309K
20260504T00Z_MSC_RDPS_DewPointDepression_IsbL-0300_RLatLon0.09_PT044H.grib2 2026-05-04 02:55 328K
20260504T00Z_MSC_RDPS_DewPointDepression_IsbL-0350_RLatLon0.09_PT044H.grib2 2026-05-04 02:55 332K
20260504T00Z_MSC_RDPS_DewPointDepression_IsbL-0400_RLatLon0.09_PT044H.grib2 2026-05-04 02:55 340K
20260504T00Z_MSC_RDPS_DewPointDepression_IsbL-0450_RLatLon0.09_PT044H.grib2 2026-05-04 02:55 346K
20260504T00Z_MSC_RDPS_DewPointDepression_IsbL-0500_RLatLon0.09_PT044H.grib2 2026-05-04 02:55 350K
20260504T00Z_MSC_RDPS_DewPointDepression_IsbL-0550_RLatLon0.09_PT044H.grib2 2026-05-04 02:55 362K
20260504T00Z_MSC_RDPS_DewPointDepression_IsbL-0600_RLatLon0.09_PT044H.grib2 2026-05-04 02:55 372K
20260504T00Z_MSC_RDPS_DewPointDepression_IsbL-0650_RLatLon0.09_PT044H.grib2 2026-05-04 02:55 378K
20260504T00Z_MSC_RDPS_DewPointDepression_IsbL-0700_RLatLon0.09_PT044H.grib2 2026-05-04 02:55 391K
20260504T00Z_MSC_RDPS_DewPointDepression_IsbL-0750_RLatLon0.09_PT044H.grib2 2026-05-04 02:55 413K
20260504T00Z_MSC_RDPS_DewPointDepression_IsbL-0800_RLatLon0.09_PT044H.grib2 2026-05-04 02:55 445K
20260504T00Z_MSC_RDPS_DewPointDepression_IsbL-0850_RLatLon0.09_PT044H.grib2 2026-05-04 02:55 479K
20260504T00Z_MSC_RDPS_DewPointDepression_IsbL-0875_RLatLon0.09_PT044H.grib2 2026-05-04 02:55 479K
20260504T00Z_MSC_RDPS_DewPointDepression_IsbL-0900_RLatLon0.09_PT044H.grib2 2026-05-04 02:55 471K
20260504T00Z_MSC_RDPS_DewPointDepression_IsbL-0925_RLatLon0.09_PT044H.grib2 2026-05-04 02:55 458K
20260504T00Z_MSC_RDPS_DewPointDepression_IsbL-0950_RLatLon0.09_PT044H.grib2 2026-05-04 02:55 447K
20260504T00Z_MSC_RDPS_DewPointDepression_IsbL-0970_RLatLon0.09_PT044H.grib2 2026-05-04 02:55 442K
20260504T00Z_MSC_RDPS_DewPointDepression_IsbL-0985_RLatLon0.09_PT044H.grib2 2026-05-04 02:55 440K
20260504T00Z_MSC_RDPS_DewPointDepression_IsbL-1000_RLatLon0.09_PT044H.grib2 2026-05-04 02:55 435K
20260504T00Z_MSC_RDPS_DewPointDepression_IsbL-1015_RLatLon0.09_PT044H.grib2 2026-05-04 02:55 427K
20260504T00Z_MSC_RDPS_DewPoint_AGL-2m_RLatLon0.09_PT044H.grib2 2026-05-04 02:55 396K
20260504T00Z_MSC_RDPS_DownwardLongwaveRadiationFlux-Accum_Sfc_RLatLon0.09_PT044H.grib2 2026-05-04 02:55 363K
20260504T00Z_MSC_RDPS_DownwardShortwaveRadiationFlux-Accum_NTAtm_RLatLon0.09_PT044H.grib2 2026-05-04 02:55 123K
20260504T00Z_MSC_RDPS_DownwardShortwaveRadiationFlux-Accum_Sfc_RLatLon0.09_PT044H.grib2 2026-05-04 02:55 550K
20260504T00Z_MSC_RDPS_FreezingRain-Accum1h_Sfc_RLatLon0.09_PT044H.grib2 2026-05-04 02:55 16K
20260504T00Z_MSC_RDPS_FreezingRain-Accum_Sfc_RLatLon0.09_PT044H.grib2 2026-05-04 02:55 153K
20260504T00Z_MSC_RDPS_GeopotentialHeight_IsbL-0001_RLatLon0.09_PT044H.grib2 2026-05-04 02:55 354K
20260504T00Z_MSC_RDPS_GeopotentialHeight_IsbL-0005_RLatLon0.09_PT044H.grib2 2026-05-04 02:55 344K
20260504T00Z_MSC_RDPS_GeopotentialHeight_IsbL-0010_RLatLon0.09_PT044H.grib2 2026-05-04 02:55 312K
20260504T00Z_MSC_RDPS_GeopotentialHeight_IsbL-0020_RLatLon0.09_PT044H.grib2 2026-05-04 02:55 312K
20260504T00Z_MSC_RDPS_GeopotentialHeight_IsbL-0030_RLatLon0.09_PT044H.grib2 2026-05-04 02:55 411K
20260504T00Z_MSC_RDPS_GeopotentialHeight_IsbL-0050_RLatLon0.09_PT044H.grib2 2026-05-04 02:55 314K
20260504T00Z_MSC_RDPS_GeopotentialHeight_IsbL-0100_RLatLon0.09_PT044H.grib2 2026-05-04 02:55 288K
20260504T00Z_MSC_RDPS_GeopotentialHeight_IsbL-0150_RLatLon0.09_PT044H.grib2 2026-05-04 02:55 230K
20260504T00Z_MSC_RDPS_GeopotentialHeight_IsbL-0175_RLatLon0.09_PT044H.grib2 2026-05-04 02:55 234K
20260504T00Z_MSC_RDPS_GeopotentialHeight_IsbL-0200_RLatLon0.09_PT044H.grib2 2026-05-04 02:55 237K
20260504T00Z_MSC_RDPS_GeopotentialHeight_IsbL-0225_RLatLon0.09_PT044H.grib2 2026-05-04 02:55 238K
20260504T00Z_MSC_RDPS_GeopotentialHeight_IsbL-0250_RLatLon0.09_PT044H.grib2 2026-05-04 02:55 239K
20260504T00Z_MSC_RDPS_GeopotentialHeight_IsbL-0275_RLatLon0.09_PT044H.grib2 2026-05-04 02:55 237K
20260504T00Z_MSC_RDPS_GeopotentialHeight_IsbL-0300_RLatLon0.09_PT044H.grib2 2026-05-04 02:55 237K
20260504T00Z_MSC_RDPS_GeopotentialHeight_IsbL-0350_RLatLon0.09_PT044H.grib2 2026-05-04 02:55 233K
20260504T00Z_MSC_RDPS_GeopotentialHeight_IsbL-0400_RLatLon0.09_PT044H.grib2 2026-05-04 02:55 230K
20260504T00Z_MSC_RDPS_GeopotentialHeight_IsbL-0450_RLatLon0.09_PT044H.grib2 2026-05-04 02:55 300K
20260504T00Z_MSC_RDPS_GeopotentialHeight_IsbL-0500_RLatLon0.09_PT044H.grib2 2026-05-04 02:55 296K
20260504T00Z_MSC_RDPS_GeopotentialHeight_IsbL-0550_RLatLon0.09_PT044H.grib2 2026-05-04 02:55 292K
20260504T00Z_MSC_RDPS_GeopotentialHeight_IsbL-0600_RLatLon0.09_PT044H.grib2 2026-05-04 02:55 289K
20260504T00Z_MSC_RDPS_GeopotentialHeight_IsbL-0650_RLatLon0.09_PT044H.grib2 2026-05-04 02:55 261K
20260504T00Z_MSC_RDPS_GeopotentialHeight_IsbL-0700_RLatLon0.09_PT044H.grib2 2026-05-04 02:55 261K
20260504T00Z_MSC_RDPS_GeopotentialHeight_IsbL-0750_RLatLon0.09_PT044H.grib2 2026-05-04 02:55 348K
20260504T00Z_MSC_RDPS_GeopotentialHeight_IsbL-0800_RLatLon0.09_PT044H.grib2 2026-05-04 02:55 356K
20260504T00Z_MSC_RDPS_GeopotentialHeight_IsbL-0850_RLatLon0.09_PT044H.grib2 2026-05-04 02:55 364K
20260504T00Z_MSC_RDPS_GeopotentialHeight_IsbL-0875_RLatLon0.09_PT044H.grib2 2026-05-04 02:55 367K
20260504T00Z_MSC_RDPS_GeopotentialHeight_IsbL-0900_RLatLon0.09_PT044H.grib2 2026-05-04 02:55 370K
20260504T00Z_MSC_RDPS_GeopotentialHeight_IsbL-0925_RLatLon0.09_PT044H.grib2 2026-05-04 02:55 372K
20260504T00Z_MSC_RDPS_GeopotentialHeight_IsbL-0950_RLatLon0.09_PT044H.grib2 2026-05-04 02:55 289K
20260504T00Z_MSC_RDPS_GeopotentialHeight_IsbL-0970_RLatLon0.09_PT044H.grib2 2026-05-04 02:55 294K
20260504T00Z_MSC_RDPS_GeopotentialHeight_IsbL-0985_RLatLon0.09_PT044H.grib2 2026-05-04 02:55 301K
20260504T00Z_MSC_RDPS_GeopotentialHeight_IsbL-1000_RLatLon0.09_PT044H.grib2 2026-05-04 02:55 310K
20260504T00Z_MSC_RDPS_GeopotentialHeight_IsbL-1015_RLatLon0.09_PT044H.grib2 2026-05-04 02:55 321K
20260504T00Z_MSC_RDPS_Humidex_Sfc_RLatLon0.09_PT044H.grib2 2026-05-04 02:55 2.4M
20260504T00Z_MSC_RDPS_IcePellets-Accum1h_Sfc_RLatLon0.09_PT044H.grib2 2026-05-04 02:55 5.6K
20260504T00Z_MSC_RDPS_IcePellets-Accum_Sfc_RLatLon0.09_PT044H.grib2 2026-05-04 02:55 34K
20260504T00Z_MSC_RDPS_KIndex_Sfc_RLatLon0.09_PT044H.grib2 2026-05-04 02:55 2.5M
20260504T00Z_MSC_RDPS_LatentHeatNetFlux_Sfc_RLatLon0.09_PT044H.grib2 2026-05-04 02:55 317K
20260504T00Z_MSC_RDPS_LiftedIndex-MU-VT_IsbL-0500_RLatLon0.09_PT044H.grib2 2026-05-04 02:55 2.4M
20260504T00Z_MSC_RDPS_NetLongwaveRadiationFlux-Accum_Sfc_RLatLon0.09_PT044H.grib2 2026-05-04 02:55 537K
20260504T00Z_MSC_RDPS_NetShortwaveRadiationFlux-Accum_Sfc_RLatLon0.09_PT044H.grib2 2026-05-04 02:55 548K
20260504T00Z_MSC_RDPS_PlanetaryBoundaryLayerHeight_Sfc_RLatLon0.09_PT044H.grib2 2026-05-04 02:55 1.0M
20260504T00Z_MSC_RDPS_Precip-Accum1h_Sfc_RLatLon0.09_PT044H.grib2 2026-05-04 02:55 1.2M
20260504T00Z_MSC_RDPS_Precip-Accum_Sfc_RLatLon0.09_PT044H.grib2 2026-05-04 02:55 2.1M
20260504T00Z_MSC_RDPS_PrecipRate_Sfc_RLatLon0.09_PT044H.grib2 2026-05-04 02:55 195K
20260504T00Z_MSC_RDPS_PrecipType-Instant_Sfc_RLatLon0.09_PT044H.grib2 2026-05-04 02:55 608K
20260504T00Z_MSC_RDPS_Pressure-Trend3h_Sfc_RLatLon0.09_PT044H.grib2 2026-05-04 02:55 1.2M
20260504T00Z_MSC_RDPS_Pressure_MSL_RLatLon0.09_PT044H.grib2 2026-05-04 02:55 334K
20260504T00Z_MSC_RDPS_Pressure_PVU-1.5_RLatLon0.09_PT044H.grib2 2026-05-04 02:55 2.5M
20260504T00Z_MSC_RDPS_Pressure_PVU-1_RLatLon0.09_PT044H.grib2 2026-05-04 02:55 2.4M
20260504T00Z_MSC_RDPS_Pressure_PVU-2_RLatLon0.09_PT044H.grib2 2026-05-04 02:55 2.4M
20260504T00Z_MSC_RDPS_Pressure_Sfc_RLatLon0.09_PT044H.grib2 2026-05-04 02:55 499K
20260504T00Z_MSC_RDPS_RadiativeTemp_Sfc_RLatLon0.09_PT044H.grib2 2026-05-04 02:55 325K
20260504T00Z_MSC_RDPS_Rain-Accum1h_Sfc_RLatLon0.09_PT044H.grib2 2026-05-04 02:55 635K
20260504T00Z_MSC_RDPS_Rain-Accum_Sfc_RLatLon0.09_PT044H.grib2 2026-05-04 02:55 1.7M
20260504T00Z_MSC_RDPS_RelativeHumidity_AGL-2m_RLatLon0.09_PT044H.grib2 2026-05-04 02:55 1.0M
20260504T00Z_MSC_RDPS_RelativeHumidity_IsbL-0010_RLatLon0.09_PT044H.grib2 2026-05-04 02:55 694K
20260504T00Z_MSC_RDPS_RelativeHumidity_IsbL-0020_RLatLon0.09_PT044H.grib2 2026-05-04 02:55 668K
20260504T00Z_MSC_RDPS_RelativeHumidity_IsbL-0030_RLatLon0.09_PT044H.grib2 2026-05-04 02:55 640K
20260504T00Z_MSC_RDPS_RelativeHumidity_IsbL-0050_RLatLon0.09_PT044H.grib2 2026-05-04 02:55 360K
20260504T00Z_MSC_RDPS_RelativeHumidity_IsbL-0100_RLatLon0.09_PT044H.grib2 2026-05-04 02:55 275K
20260504T00Z_MSC_RDPS_RelativeHumidity_IsbL-0150_RLatLon0.09_PT044H.grib2 2026-05-04 02:55 425K
20260504T00Z_MSC_RDPS_RelativeHumidity_IsbL-0175_RLatLon0.09_PT044H.grib2 2026-05-04 02:55 495K
20260504T00Z_MSC_RDPS_RelativeHumidity_IsbL-0200_RLatLon0.09_PT044H.grib2 2026-05-04 02:55 567K
20260504T00Z_MSC_RDPS_RelativeHumidity_IsbL-0225_RLatLon0.09_PT044H.grib2 2026-05-04 02:55 622K
20260504T00Z_MSC_RDPS_RelativeHumidity_IsbL-0250_RLatLon0.09_PT044H.grib2 2026-05-04 02:55 682K
20260504T00Z_MSC_RDPS_RelativeHumidity_IsbL-0275_RLatLon0.09_PT044H.grib2 2026-05-04 02:55 709K
20260504T00Z_MSC_RDPS_RelativeHumidity_IsbL-0300_RLatLon0.09_PT044H.grib2 2026-05-04 02:55 755K
20260504T00Z_MSC_RDPS_RelativeHumidity_IsbL-0350_RLatLon0.09_PT044H.grib2 2026-05-04 02:55 777K
20260504T00Z_MSC_RDPS_RelativeHumidity_IsbL-0400_RLatLon0.09_PT044H.grib2 2026-05-04 02:55 789K
20260504T00Z_MSC_RDPS_RelativeHumidity_IsbL-0450_RLatLon0.09_PT044H.grib2 2026-05-04 02:55 797K
20260504T00Z_MSC_RDPS_RelativeHumidity_IsbL-0500_RLatLon0.09_PT044H.grib2 2026-05-04 02:55 799K
20260504T00Z_MSC_RDPS_RelativeHumidity_IsbL-0550_RLatLon0.09_PT044H.grib2 2026-05-04 02:55 813K
20260504T00Z_MSC_RDPS_RelativeHumidity_IsbL-0600_RLatLon0.09_PT044H.grib2 2026-05-04 02:55 840K
20260504T00Z_MSC_RDPS_RelativeHumidity_IsbL-0650_RLatLon0.09_PT044H.grib2 2026-05-04 02:55 845K
20260504T00Z_MSC_RDPS_RelativeHumidity_IsbL-0700_RLatLon0.09_PT044H.grib2 2026-05-04 02:55 873K
20260504T00Z_MSC_RDPS_RelativeHumidity_IsbL-0750_RLatLon0.09_PT044H.grib2 2026-05-04 02:55 920K
20260504T00Z_MSC_RDPS_RelativeHumidity_IsbL-0800_RLatLon0.09_PT044H.grib2 2026-05-04 02:55 1.0M
20260504T00Z_MSC_RDPS_RelativeHumidity_IsbL-0850_RLatLon0.09_PT044H.grib2 2026-05-04 02:55 1.0M
20260504T00Z_MSC_RDPS_RelativeHumidity_IsbL-0875_RLatLon0.09_PT044H.grib2 2026-05-04 02:55 1.1M
20260504T00Z_MSC_RDPS_RelativeHumidity_IsbL-0900_RLatLon0.09_PT044H.grib2 2026-05-04 02:55 1.1M
20260504T00Z_MSC_RDPS_RelativeHumidity_IsbL-0925_RLatLon0.09_PT044H.grib2 2026-05-04 02:55 1.1M
20260504T00Z_MSC_RDPS_RelativeHumidity_IsbL-0950_RLatLon0.09_PT044H.grib2 2026-05-04 02:55 1.1M
20260504T00Z_MSC_RDPS_RelativeHumidity_IsbL-0970_RLatLon0.09_PT044H.grib2 2026-05-04 02:55 1.1M
20260504T00Z_MSC_RDPS_RelativeHumidity_IsbL-0985_RLatLon0.09_PT044H.grib2 2026-05-04 02:55 1.0M
20260504T00Z_MSC_RDPS_RelativeHumidity_IsbL-1000_RLatLon0.09_PT044H.grib2 2026-05-04 02:55 1.0M
20260504T00Z_MSC_RDPS_RelativeHumidity_IsbL-1015_RLatLon0.09_PT044H.grib2 2026-05-04 02:55 1.0M
20260504T00Z_MSC_RDPS_Runoff-Accum_Sfc_RLatLon0.09_PT044H.grib2 2026-05-04 02:55 51K
20260504T00Z_MSC_RDPS_SWEATIndex_Sfc_RLatLon0.09_PT044H.grib2 2026-05-04 02:55 2.4M
20260504T00Z_MSC_RDPS_SeeingIndex_EAtm_RLatLon0.09_PT044H.grib2 2026-05-04 02:55 1.0M
20260504T00Z_MSC_RDPS_SensibleHeatNetFlux_Sfc_RLatLon0.09_PT044H.grib2 2026-05-04 02:55 368K
20260504T00Z_MSC_RDPS_ShowalterIndex_IsbL-0500_RLatLon0.09_PT044H.grib2 2026-05-04 02:55 2.6M
20260504T00Z_MSC_RDPS_SkyTransparencyIndex_EAtm_RLatLon0.09_PT044H.grib2 2026-05-04 02:55 695K
20260504T00Z_MSC_RDPS_Snow-Accum1h_Sfc_RLatLon0.09_PT044H.grib2 2026-05-04 02:55 463K
20260504T00Z_MSC_RDPS_Snow-Accum_Sfc_RLatLon0.09_PT044H.grib2 2026-05-04 02:55 771K
20260504T00Z_MSC_RDPS_SnowDensity_Sfc_RLatLon0.09_PT044H.grib2 2026-05-04 02:55 173K
20260504T00Z_MSC_RDPS_SnowDepth_Sfc_RLatLon0.09_PT044H.grib2 2026-05-04 02:55 652K
20260504T00Z_MSC_RDPS_SoilTemp_DBS-0to10cm_RLatLon0.09_PT044H.grib2 2026-05-04 02:55 240K
20260504T00Z_MSC_RDPS_SoilTemp_Sfc_RLatLon0.09_PT044H.grib2 2026-05-04 02:55 288K
20260504T00Z_MSC_RDPS_SoilVolumetricIceContent_Sfc_RLatLon0.09_PT044H.grib2 2026-05-04 02:55 152K
20260504T00Z_MSC_RDPS_SoilVolumetricWaterContent_DBS-0to10cm_RLatLon0.09_PT044H.grib2 2026-05-04 02:55 277K
20260504T00Z_MSC_RDPS_SoilVolumetricWaterContent_DBS-0to1cm_RLatLon0.09_PT044H.grib2 2026-05-04 02:55 341K
20260504T00Z_MSC_RDPS_SpecificHumidity_AGL-120m_RLatLon0.09_PT044H.grib2 2026-05-04 02:55 499K
20260504T00Z_MSC_RDPS_SpecificHumidity_AGL-2m_RLatLon0.09_PT044H.grib2 2026-05-04 02:55 670K
20260504T00Z_MSC_RDPS_SpecificHumidity_AGL-40m_RLatLon0.09_PT044H.grib2 2026-05-04 02:55 504K
20260504T00Z_MSC_RDPS_SpecificHumidity_AGL-80m_RLatLon0.09_PT044H.grib2 2026-05-04 02:55 500K
20260504T00Z_MSC_RDPS_SpecificHumidity_IsbL-0001_RLatLon0.09_PT044H.grib2 2026-05-04 02:55 414K
20260504T00Z_MSC_RDPS_SpecificHumidity_IsbL-0005_RLatLon0.09_PT044H.grib2 2026-05-04 02:55 372K
20260504T00Z_MSC_RDPS_SpecificHumidity_IsbL-0010_RLatLon0.09_PT044H.grib2 2026-05-04 02:55 402K
20260504T00Z_MSC_RDPS_SpecificHumidity_IsbL-0020_RLatLon0.09_PT044H.grib2 2026-05-04 02:55 383K
20260504T00Z_MSC_RDPS_SpecificHumidity_IsbL-0030_RLatLon0.09_PT044H.grib2 2026-05-04 02:55 376K
20260504T00Z_MSC_RDPS_SpecificHumidity_IsbL-0050_RLatLon0.09_PT044H.grib2 2026-05-04 02:55 485K
20260504T00Z_MSC_RDPS_SpecificHumidity_IsbL-0100_RLatLon0.09_PT044H.grib2 2026-05-04 02:55 417K
20260504T00Z_MSC_RDPS_SpecificHumidity_IsbL-0150_RLatLon0.09_PT044H.grib2 2026-05-04 02:55 464K
20260504T00Z_MSC_RDPS_SpecificHumidity_IsbL-0175_RLatLon0.09_PT044H.grib2 2026-05-04 02:55 457K
20260504T00Z_MSC_RDPS_SpecificHumidity_IsbL-0200_RLatLon0.09_PT044H.grib2 2026-05-04 02:55 467K
20260504T00Z_MSC_RDPS_SpecificHumidity_IsbL-0225_RLatLon0.09_PT044H.grib2 2026-05-04 02:55 461K
20260504T00Z_MSC_RDPS_SpecificHumidity_IsbL-0250_RLatLon0.09_PT044H.grib2 2026-05-04 02:55 520K
20260504T00Z_MSC_RDPS_SpecificHumidity_IsbL-0275_RLatLon0.09_PT044H.grib2 2026-05-04 02:55 481K
20260504T00Z_MSC_RDPS_SpecificHumidity_IsbL-0300_RLatLon0.09_PT044H.grib2 2026-05-04 02:55 458K
20260504T00Z_MSC_RDPS_SpecificHumidity_IsbL-0350_RLatLon0.09_PT044H.grib2 2026-05-04 02:55 574K
20260504T00Z_MSC_RDPS_SpecificHumidity_IsbL-0400_RLatLon0.09_PT044H.grib2 2026-05-04 02:55 528K
20260504T00Z_MSC_RDPS_SpecificHumidity_IsbL-0450_RLatLon0.09_PT044H.grib2 2026-05-04 02:55 578K
20260504T00Z_MSC_RDPS_SpecificHumidity_IsbL-0500_RLatLon0.09_PT044H.grib2 2026-05-04 02:55 510K
20260504T00Z_MSC_RDPS_SpecificHumidity_IsbL-0550_RLatLon0.09_PT044H.grib2 2026-05-04 02:55 580K
20260504T00Z_MSC_RDPS_SpecificHumidity_IsbL-0600_RLatLon0.09_PT044H.grib2 2026-05-04 02:55 629K
20260504T00Z_MSC_RDPS_SpecificHumidity_IsbL-0650_RLatLon0.09_PT044H.grib2 2026-05-04 02:55 548K
20260504T00Z_MSC_RDPS_SpecificHumidity_IsbL-0700_RLatLon0.09_PT044H.grib2 2026-05-04 02:55 595K
20260504T00Z_MSC_RDPS_SpecificHumidity_IsbL-0750_RLatLon0.09_PT044H.grib2 2026-05-04 02:55 666K
20260504T00Z_MSC_RDPS_SpecificHumidity_IsbL-0800_RLatLon0.09_PT044H.grib2 2026-05-04 02:55 736K
20260504T00Z_MSC_RDPS_SpecificHumidity_IsbL-0850_RLatLon0.09_PT044H.grib2 2026-05-04 02:55 815K
20260504T00Z_MSC_RDPS_SpecificHumidity_IsbL-0875_RLatLon0.09_PT044H.grib2 2026-05-04 02:55 704K
20260504T00Z_MSC_RDPS_SpecificHumidity_IsbL-0900_RLatLon0.09_PT044H.grib2 2026-05-04 02:55 716K
20260504T00Z_MSC_RDPS_SpecificHumidity_IsbL-0925_RLatLon0.09_PT044H.grib2 2026-05-04 02:55 717K
20260504T00Z_MSC_RDPS_SpecificHumidity_IsbL-0950_RLatLon0.09_PT044H.grib2 2026-05-04 02:55 714K
20260504T00Z_MSC_RDPS_SpecificHumidity_IsbL-0970_RLatLon0.09_PT044H.grib2 2026-05-04 02:55 709K
20260504T00Z_MSC_RDPS_SpecificHumidity_IsbL-0985_RLatLon0.09_PT044H.grib2 2026-05-04 02:55 703K
20260504T00Z_MSC_RDPS_SpecificHumidity_IsbL-1000_RLatLon0.09_PT044H.grib2 2026-05-04 02:55 697K
20260504T00Z_MSC_RDPS_SpecificHumidity_IsbL-1015_RLatLon0.09_PT044H.grib2 2026-05-04 02:55 688K
20260504T00Z_MSC_RDPS_SpecificHumidity_Sfc_RLatLon0.09_PT044H.grib2 2026-05-04 02:55 344K
20260504T00Z_MSC_RDPS_StormRelativeHelicity_EtaL-10000_RLatLon0.09_PT044H.grib2 2026-05-04 02:55 1.1M
20260504T00Z_MSC_RDPS_StormSeverityIndex_EtaL-10000_RLatLon0.09_PT044H.grib2 2026-05-04 02:55 1.2M
20260504T00Z_MSC_RDPS_Thickness_IsbL-0850to0700_RLatLon0.09_PT044H.grib2 2026-05-04 02:55 181K
20260504T00Z_MSC_RDPS_Thickness_IsbL-1000to0500_RLatLon0.09_PT044H.grib2 2026-05-04 02:55 203K
20260504T00Z_MSC_RDPS_Thickness_IsbL-1000to0850_RLatLon0.09_PT044H.grib2 2026-05-04 02:55 189K
20260504T00Z_MSC_RDPS_TotalCloudCover_Sfc_RLatLon0.09_PT044H.grib2 2026-05-04 02:55 648K
20260504T00Z_MSC_RDPS_TotalTotalsIndex_Sfc_RLatLon0.09_PT044H.grib2 2026-05-04 02:55 2.5M
20260504T00Z_MSC_RDPS_UVIndex-ClearSky_Sfc_RLatLon0.09_PT044H.grib2 2026-05-04 02:55 219K
20260504T00Z_MSC_RDPS_UVIndex_Sfc_RLatLon0.09_PT044H.grib2 2026-05-04 02:55 516K
20260504T00Z_MSC_RDPS_UpwardLongwaveRadiationFlux_NTAtm_RLatLon0.09_PT044H.grib2 2026-05-04 02:55 381K
20260504T00Z_MSC_RDPS_UpwardShortwaveRadiationFlux_NTAtm_RLatLon0.09_PT044H.grib2 2026-05-04 02:55 544K
20260504T00Z_MSC_RDPS_VerticalVelocity_IsbL-0250_RLatLon0.09_PT044H.grib2 2026-05-04 02:55 462K
20260504T00Z_MSC_RDPS_VerticalVelocity_IsbL-0500_RLatLon0.09_PT044H.grib2 2026-05-04 02:55 551K
20260504T00Z_MSC_RDPS_VerticalVelocity_IsbL-0700_RLatLon0.09_PT044H.grib2 2026-05-04 02:55 606K
20260504T00Z_MSC_RDPS_VerticalVelocity_IsbL-0850_RLatLon0.09_PT044H.grib2 2026-05-04 02:55 709K
20260504T00Z_MSC_RDPS_VerticalWindShear_EtaL-6500_RLatLon0.09_PT044H.grib2 2026-05-04 02:55 1.2M
20260504T00Z_MSC_RDPS_WindChill_Sfc_RLatLon0.09_PT044H.grib2 2026-05-04 02:55 1.2M
20260504T00Z_MSC_RDPS_WindDir_AGL-10m_RLatLon0.09_PT044H.grib2 2026-05-04 02:55 946K
20260504T00Z_MSC_RDPS_WindDir_AGL-120m_RLatLon0.09_PT044H.grib2 2026-05-04 02:55 595K
20260504T00Z_MSC_RDPS_WindDir_AGL-40m_RLatLon0.09_PT044H.grib2 2026-05-04 02:55 615K
20260504T00Z_MSC_RDPS_WindDir_AGL-80m_RLatLon0.09_PT044H.grib2 2026-05-04 02:55 604K
20260504T00Z_MSC_RDPS_WindDir_IsbL-0001_RLatLon0.09_PT044H.grib2 2026-05-04 02:55 307K
20260504T00Z_MSC_RDPS_WindDir_IsbL-0005_RLatLon0.09_PT044H.grib2 2026-05-04 02:55 386K
20260504T00Z_MSC_RDPS_WindDir_IsbL-0010_RLatLon0.09_PT044H.grib2 2026-05-04 02:55 393K
20260504T00Z_MSC_RDPS_WindDir_IsbL-0020_RLatLon0.09_PT044H.grib2 2026-05-04 02:55 407K
20260504T00Z_MSC_RDPS_WindDir_IsbL-0030_RLatLon0.09_PT044H.grib2 2026-05-04 02:55 416K
20260504T00Z_MSC_RDPS_WindDir_IsbL-0050_RLatLon0.09_PT044H.grib2 2026-05-04 02:55 437K
20260504T00Z_MSC_RDPS_WindDir_IsbL-0100_RLatLon0.09_PT044H.grib2 2026-05-04 02:55 423K
20260504T00Z_MSC_RDPS_WindDir_IsbL-0150_RLatLon0.09_PT044H.grib2 2026-05-04 02:55 421K
20260504T00Z_MSC_RDPS_WindDir_IsbL-0175_RLatLon0.09_PT044H.grib2 2026-05-04 02:55 446K
20260504T00Z_MSC_RDPS_WindDir_IsbL-0200_RLatLon0.09_PT044H.grib2 2026-05-04 02:55 455K
20260504T00Z_MSC_RDPS_WindDir_IsbL-0225_RLatLon0.09_PT044H.grib2 2026-05-04 02:55 455K
20260504T00Z_MSC_RDPS_WindDir_IsbL-0250_RLatLon0.09_PT044H.grib2 2026-05-04 02:55 454K
20260504T00Z_MSC_RDPS_WindDir_IsbL-0275_RLatLon0.09_PT044H.grib2 2026-05-04 02:55 471K
20260504T00Z_MSC_RDPS_WindDir_IsbL-0300_RLatLon0.09_PT044H.grib2 2026-05-04 02:55 470K
20260504T00Z_MSC_RDPS_WindDir_IsbL-0350_RLatLon0.09_PT044H.grib2 2026-05-04 02:55 493K
20260504T00Z_MSC_RDPS_WindDir_IsbL-0400_RLatLon0.09_PT044H.grib2 2026-05-04 02:55 510K
20260504T00Z_MSC_RDPS_WindDir_IsbL-0450_RLatLon0.09_PT044H.grib2 2026-05-04 02:55 531K
20260504T00Z_MSC_RDPS_WindDir_IsbL-0500_RLatLon0.09_PT044H.grib2 2026-05-04 02:55 540K
20260504T00Z_MSC_RDPS_WindDir_IsbL-0550_RLatLon0.09_PT044H.grib2 2026-05-04 02:55 552K
20260504T00Z_MSC_RDPS_WindDir_IsbL-0600_RLatLon0.09_PT044H.grib2 2026-05-04 02:55 579K
20260504T00Z_MSC_RDPS_WindDir_IsbL-0650_RLatLon0.09_PT044H.grib2 2026-05-04 02:55 625K
20260504T00Z_MSC_RDPS_WindDir_IsbL-0700_RLatLon0.09_PT044H.grib2 2026-05-04 02:55 674K
20260504T00Z_MSC_RDPS_WindDir_IsbL-0750_RLatLon0.09_PT044H.grib2 2026-05-04 02:55 724K
20260504T00Z_MSC_RDPS_WindDir_IsbL-0800_RLatLon0.09_PT044H.grib2 2026-05-04 02:55 784K
20260504T00Z_MSC_RDPS_WindDir_IsbL-0850_RLatLon0.09_PT044H.grib2 2026-05-04 02:55 864K
20260504T00Z_MSC_RDPS_WindDir_IsbL-0875_RLatLon0.09_PT044H.grib2 2026-05-04 02:55 890K
20260504T00Z_MSC_RDPS_WindDir_IsbL-0900_RLatLon0.09_PT044H.grib2 2026-05-04 02:55 902K
20260504T00Z_MSC_RDPS_WindDir_IsbL-0925_RLatLon0.09_PT044H.grib2 2026-05-04 02:55 907K
20260504T00Z_MSC_RDPS_WindDir_IsbL-0950_RLatLon0.09_PT044H.grib2 2026-05-04 02:55 899K
20260504T00Z_MSC_RDPS_WindDir_IsbL-0970_RLatLon0.09_PT044H.grib2 2026-05-04 02:55 903K
20260504T00Z_MSC_RDPS_WindDir_IsbL-0985_RLatLon0.09_PT044H.grib2 2026-05-04 02:55 911K
20260504T00Z_MSC_RDPS_WindDir_IsbL-1000_RLatLon0.09_PT044H.grib2 2026-05-04 02:55 923K
20260504T00Z_MSC_RDPS_WindDir_IsbL-1015_RLatLon0.09_PT044H.grib2 2026-05-04 02:55 938K
20260504T00Z_MSC_RDPS_WindGust-Max_AGL-10m_RLatLon0.09_PT044H.grib2 2026-05-04 02:55 1.0M
20260504T00Z_MSC_RDPS_WindGust-Min_AGL-10m_RLatLon0.09_PT044H.grib2 2026-05-04 02:55 1.0M
20260504T00Z_MSC_RDPS_WindGust_AGL-10m_RLatLon0.09_PT044H.grib2 2026-05-04 02:55 1.0M
20260504T00Z_MSC_RDPS_WindSpeed_AGL-10m_RLatLon0.09_PT044H.grib2 2026-05-04 02:55 848K
20260504T00Z_MSC_RDPS_WindSpeed_AGL-120m_RLatLon0.09_PT044H.grib2 2026-05-04 02:55 539K
20260504T00Z_MSC_RDPS_WindSpeed_AGL-40m_RLatLon0.09_PT044H.grib2 2026-05-04 02:55 546K
20260504T00Z_MSC_RDPS_WindSpeed_AGL-80m_RLatLon0.09_PT044H.grib2 2026-05-04 02:55 541K
20260504T00Z_MSC_RDPS_WindSpeed_IsbL-0001_RLatLon0.09_PT044H.grib2 2026-05-04 02:55 260K
20260504T00Z_MSC_RDPS_WindSpeed_IsbL-0005_RLatLon0.09_PT044H.grib2 2026-05-04 02:55 389K
20260504T00Z_MSC_RDPS_WindSpeed_IsbL-0010_RLatLon0.09_PT044H.grib2 2026-05-04 02:55 404K
20260504T00Z_MSC_RDPS_WindSpeed_IsbL-0020_RLatLon0.09_PT044H.grib2 2026-05-04 02:55 422K
20260504T00Z_MSC_RDPS_WindSpeed_IsbL-0030_RLatLon0.09_PT044H.grib2 2026-05-04 02:55 322K
20260504T00Z_MSC_RDPS_WindSpeed_IsbL-0050_RLatLon0.09_PT044H.grib2 2026-05-04 02:55 353K
20260504T00Z_MSC_RDPS_WindSpeed_IsbL-0100_RLatLon0.09_PT044H.grib2 2026-05-04 02:55 477K
20260504T00Z_MSC_RDPS_WindSpeed_IsbL-0150_RLatLon0.09_PT044H.grib2 2026-05-04 02:55 384K
20260504T00Z_MSC_RDPS_WindSpeed_IsbL-0175_RLatLon0.09_PT044H.grib2 2026-05-04 02:55 430K
20260504T00Z_MSC_RDPS_WindSpeed_IsbL-0200_RLatLon0.09_PT044H.grib2 2026-05-04 02:55 444K
20260504T00Z_MSC_RDPS_WindSpeed_IsbL-0225_RLatLon0.09_PT044H.grib2 2026-05-04 02:55 448K
20260504T00Z_MSC_RDPS_WindSpeed_IsbL-0250_RLatLon0.09_PT044H.grib2 2026-05-04 02:55 450K
20260504T00Z_MSC_RDPS_WindSpeed_IsbL-0275_RLatLon0.09_PT044H.grib2 2026-05-04 02:55 465K
20260504T00Z_MSC_RDPS_WindSpeed_IsbL-0300_RLatLon0.09_PT044H.grib2 2026-05-04 02:55 464K
20260504T00Z_MSC_RDPS_WindSpeed_IsbL-0350_RLatLon0.09_PT044H.grib2 2026-05-04 02:55 476K
20260504T00Z_MSC_RDPS_WindSpeed_IsbL-0400_RLatLon0.09_PT044H.grib2 2026-05-04 02:55 482K
20260504T00Z_MSC_RDPS_WindSpeed_IsbL-0450_RLatLon0.09_PT044H.grib2 2026-05-04 02:55 466K
20260504T00Z_MSC_RDPS_WindSpeed_IsbL-0500_RLatLon0.09_PT044H.grib2 2026-05-04 02:55 466K
20260504T00Z_MSC_RDPS_WindSpeed_IsbL-0550_RLatLon0.09_PT044H.grib2 2026-05-04 02:55 466K
20260504T00Z_MSC_RDPS_WindSpeed_IsbL-0600_RLatLon0.09_PT044H.grib2 2026-05-04 02:55 475K
20260504T00Z_MSC_RDPS_WindSpeed_IsbL-0650_RLatLon0.09_PT044H.grib2 2026-05-04 02:55 616K
20260504T00Z_MSC_RDPS_WindSpeed_IsbL-0700_RLatLon0.09_PT044H.grib2 2026-05-04 02:55 638K
20260504T00Z_MSC_RDPS_WindSpeed_IsbL-0750_RLatLon0.09_PT044H.grib2 2026-05-04 02:55 713K
20260504T00Z_MSC_RDPS_WindSpeed_IsbL-0800_RLatLon0.09_PT044H.grib2 2026-05-04 02:55 762K
20260504T00Z_MSC_RDPS_WindSpeed_IsbL-0850_RLatLon0.09_PT044H.grib2 2026-05-04 02:55 826K
20260504T00Z_MSC_RDPS_WindSpeed_IsbL-0875_RLatLon0.09_PT044H.grib2 2026-05-04 02:55 851K
20260504T00Z_MSC_RDPS_WindSpeed_IsbL-0900_RLatLon0.09_PT044H.grib2 2026-05-04 02:55 866K
20260504T00Z_MSC_RDPS_WindSpeed_IsbL-0925_RLatLon0.09_PT044H.grib2 2026-05-04 02:55 876K
20260504T00Z_MSC_RDPS_WindSpeed_IsbL-0950_RLatLon0.09_PT044H.grib2 2026-05-04 02:55 874K
20260504T00Z_MSC_RDPS_WindSpeed_IsbL-0970_RLatLon0.09_PT044H.grib2 2026-05-04 02:55 873K
20260504T00Z_MSC_RDPS_WindSpeed_IsbL-0985_RLatLon0.09_PT044H.grib2 2026-05-04 02:55 867K
20260504T00Z_MSC_RDPS_WindSpeed_IsbL-1000_RLatLon0.09_PT044H.grib2 2026-05-04 02:55 857K
20260504T00Z_MSC_RDPS_WindSpeed_IsbL-1015_RLatLon0.09_PT044H.grib2 2026-05-04 02:55 849K
20260504T00Z_MSC_RDPS_WindU_AGL-10m_RLatLon0.09_PT044H.grib2 2026-05-04 02:55 438K
20260504T00Z_MSC_RDPS_WindU_AGL-120m_RLatLon0.09_PT044H.grib2 2026-05-04 02:55 420K
20260504T00Z_MSC_RDPS_WindU_AGL-40m_RLatLon0.09_PT044H.grib2 2026-05-04 02:55 541K
20260504T00Z_MSC_RDPS_WindU_AGL-80m_RLatLon0.09_PT044H.grib2 2026-05-04 02:55 538K
20260504T00Z_MSC_RDPS_WindU_IsbL-0001_RLatLon0.09_PT044H.grib2 2026-05-04 02:55 295K
20260504T00Z_MSC_RDPS_WindU_IsbL-0005_RLatLon0.09_PT044H.grib2 2026-05-04 02:55 286K
20260504T00Z_MSC_RDPS_WindU_IsbL-0010_RLatLon0.09_PT044H.grib2 2026-05-04 02:55 299K
20260504T00Z_MSC_RDPS_WindU_IsbL-0020_RLatLon0.09_PT044H.grib2 2026-05-04 02:55 354K
20260504T00Z_MSC_RDPS_WindU_IsbL-0030_RLatLon0.09_PT044H.grib2 2026-05-04 02:55 315K
20260504T00Z_MSC_RDPS_WindU_IsbL-0050_RLatLon0.09_PT044H.grib2 2026-05-04 02:55 381K
20260504T00Z_MSC_RDPS_WindU_IsbL-0100_RLatLon0.09_PT044H.grib2 2026-05-04 02:55 335K
20260504T00Z_MSC_RDPS_WindU_IsbL-0150_RLatLon0.09_PT044H.grib2 2026-05-04 02:55 400K
20260504T00Z_MSC_RDPS_WindU_IsbL-0175_RLatLon0.09_PT044H.grib2 2026-05-04 02:55 424K
20260504T00Z_MSC_RDPS_WindU_IsbL-0200_RLatLon0.09_PT044H.grib2 2026-05-04 02:55 340K
20260504T00Z_MSC_RDPS_WindU_IsbL-0225_RLatLon0.09_PT044H.grib2 2026-05-04 02:55 340K
20260504T00Z_MSC_RDPS_WindU_IsbL-0250_RLatLon0.09_PT044H.grib2 2026-05-04 02:55 340K
20260504T00Z_MSC_RDPS_WindU_IsbL-0275_RLatLon0.09_PT044H.grib2 2026-05-04 02:55 353K
20260504T00Z_MSC_RDPS_WindU_IsbL-0300_RLatLon0.09_PT044H.grib2 2026-05-04 02:55 351K
20260504T00Z_MSC_RDPS_WindU_IsbL-0350_RLatLon0.09_PT044H.grib2 2026-05-04 02:55 361K
20260504T00Z_MSC_RDPS_WindU_IsbL-0400_RLatLon0.09_PT044H.grib2 2026-05-04 02:55 469K
20260504T00Z_MSC_RDPS_WindU_IsbL-0450_RLatLon0.09_PT044H.grib2 2026-05-04 02:55 470K
20260504T00Z_MSC_RDPS_WindU_IsbL-0500_RLatLon0.09_PT044H.grib2 2026-05-04 02:55 472K
20260504T00Z_MSC_RDPS_WindU_IsbL-0550_RLatLon0.09_PT044H.grib2 2026-05-04 02:55 473K
20260504T00Z_MSC_RDPS_WindU_IsbL-0600_RLatLon0.09_PT044H.grib2 2026-05-04 02:55 484K
20260504T00Z_MSC_RDPS_WindU_IsbL-0650_RLatLon0.09_PT044H.grib2 2026-05-04 02:55 504K
20260504T00Z_MSC_RDPS_WindU_IsbL-0700_RLatLon0.09_PT044H.grib2 2026-05-04 02:55 508K
20260504T00Z_MSC_RDPS_WindU_IsbL-0750_RLatLon0.09_PT044H.grib2 2026-05-04 02:55 536K
20260504T00Z_MSC_RDPS_WindU_IsbL-0800_RLatLon0.09_PT044H.grib2 2026-05-04 02:55 578K
20260504T00Z_MSC_RDPS_WindU_IsbL-0850_RLatLon0.09_PT044H.grib2 2026-05-04 02:55 633K
20260504T00Z_MSC_RDPS_WindU_IsbL-0875_RLatLon0.09_PT044H.grib2 2026-05-04 02:55 654K
20260504T00Z_MSC_RDPS_WindU_IsbL-0900_RLatLon0.09_PT044H.grib2 2026-05-04 02:55 665K
20260504T00Z_MSC_RDPS_WindU_IsbL-0925_RLatLon0.09_PT044H.grib2 2026-05-04 02:55 671K
20260504T00Z_MSC_RDPS_WindU_IsbL-0950_RLatLon0.09_PT044H.grib2 2026-05-04 02:55 665K
20260504T00Z_MSC_RDPS_WindU_IsbL-0970_RLatLon0.09_PT044H.grib2 2026-05-04 02:55 662K
20260504T00Z_MSC_RDPS_WindU_IsbL-0985_RLatLon0.09_PT044H.grib2 2026-05-04 02:55 797K
20260504T00Z_MSC_RDPS_WindU_IsbL-1000_RLatLon0.09_PT044H.grib2 2026-05-04 02:55 792K
20260504T00Z_MSC_RDPS_WindU_IsbL-1015_RLatLon0.09_PT044H.grib2 2026-05-04 02:55 788K
20260504T00Z_MSC_RDPS_WindV_AGL-10m_RLatLon0.09_PT044H.grib2 2026-05-04 02:55 438K
20260504T00Z_MSC_RDPS_WindV_AGL-120m_RLatLon0.09_PT044H.grib2 2026-05-04 02:55 420K
20260504T00Z_MSC_RDPS_WindV_AGL-40m_RLatLon0.09_PT044H.grib2 2026-05-04 02:55 541K
20260504T00Z_MSC_RDPS_WindV_AGL-80m_RLatLon0.09_PT044H.grib2 2026-05-04 02:55 421K
20260504T00Z_MSC_RDPS_WindV_IsbL-0001_RLatLon0.09_PT044H.grib2 2026-05-04 02:55 250K
20260504T00Z_MSC_RDPS_WindV_IsbL-0005_RLatLon0.09_PT044H.grib2 2026-05-04 02:55 291K
20260504T00Z_MSC_RDPS_WindV_IsbL-0010_RLatLon0.09_PT044H.grib2 2026-05-04 02:55 302K
20260504T00Z_MSC_RDPS_WindV_IsbL-0020_RLatLon0.09_PT044H.grib2 2026-05-04 02:55 414K
20260504T00Z_MSC_RDPS_WindV_IsbL-0030_RLatLon0.09_PT044H.grib2 2026-05-04 02:55 317K
20260504T00Z_MSC_RDPS_WindV_IsbL-0050_RLatLon0.09_PT044H.grib2 2026-05-04 02:55 346K
20260504T00Z_MSC_RDPS_WindV_IsbL-0100_RLatLon0.09_PT044H.grib2 2026-05-04 02:55 333K
20260504T00Z_MSC_RDPS_WindV_IsbL-0150_RLatLon0.09_PT044H.grib2 2026-05-04 02:55 397K
20260504T00Z_MSC_RDPS_WindV_IsbL-0175_RLatLon0.09_PT044H.grib2 2026-05-04 02:55 327K
20260504T00Z_MSC_RDPS_WindV_IsbL-0200_RLatLon0.09_PT044H.grib2 2026-05-04 02:55 338K
20260504T00Z_MSC_RDPS_WindV_IsbL-0225_RLatLon0.09_PT044H.grib2 2026-05-04 02:55 341K
20260504T00Z_MSC_RDPS_WindV_IsbL-0250_RLatLon0.09_PT044H.grib2 2026-05-04 02:55 342K
20260504T00Z_MSC_RDPS_WindV_IsbL-0275_RLatLon0.09_PT044H.grib2 2026-05-04 02:55 354K
20260504T00Z_MSC_RDPS_WindV_IsbL-0300_RLatLon0.09_PT044H.grib2 2026-05-04 02:55 352K
20260504T00Z_MSC_RDPS_WindV_IsbL-0350_RLatLon0.09_PT044H.grib2 2026-05-04 02:55 361K
20260504T00Z_MSC_RDPS_WindV_IsbL-0400_RLatLon0.09_PT044H.grib2 2026-05-04 02:55 365K
20260504T00Z_MSC_RDPS_WindV_IsbL-0450_RLatLon0.09_PT044H.grib2 2026-05-04 02:55 365K
20260504T00Z_MSC_RDPS_WindV_IsbL-0500_RLatLon0.09_PT044H.grib2 2026-05-04 02:55 468K
20260504T00Z_MSC_RDPS_WindV_IsbL-0550_RLatLon0.09_PT044H.grib2 2026-05-04 02:55 469K
20260504T00Z_MSC_RDPS_WindV_IsbL-0600_RLatLon0.09_PT044H.grib2 2026-05-04 02:55 479K
20260504T00Z_MSC_RDPS_WindV_IsbL-0650_RLatLon0.09_PT044H.grib2 2026-05-04 02:55 499K
20260504T00Z_MSC_RDPS_WindV_IsbL-0700_RLatLon0.09_PT044H.grib2 2026-05-04 02:55 519K
20260504T00Z_MSC_RDPS_WindV_IsbL-0750_RLatLon0.09_PT044H.grib2 2026-05-04 02:55 530K
20260504T00Z_MSC_RDPS_WindV_IsbL-0800_RLatLon0.09_PT044H.grib2 2026-05-04 02:55 572K
20260504T00Z_MSC_RDPS_WindV_IsbL-0850_RLatLon0.09_PT044H.grib2 2026-05-04 02:55 627K
20260504T00Z_MSC_RDPS_WindV_IsbL-0875_RLatLon0.09_PT044H.grib2 2026-05-04 02:55 650K
20260504T00Z_MSC_RDPS_WindV_IsbL-0900_RLatLon0.09_PT044H.grib2 2026-05-04 02:55 662K
20260504T00Z_MSC_RDPS_WindV_IsbL-0925_RLatLon0.09_PT044H.grib2 2026-05-04 02:55 668K
20260504T00Z_MSC_RDPS_WindV_IsbL-0950_RLatLon0.09_PT044H.grib2 2026-05-04 02:55 670K
20260504T00Z_MSC_RDPS_WindV_IsbL-0970_RLatLon0.09_PT044H.grib2 2026-05-04 02:55 663K
20260504T00Z_MSC_RDPS_WindV_IsbL-0985_RLatLon0.09_PT044H.grib2 2026-05-04 02:55 660K
20260504T00Z_MSC_RDPS_WindV_IsbL-1000_RLatLon0.09_PT044H.grib2 2026-05-04 02:55 655K
20260504T00Z_MSC_RDPS_WindV_IsbL-1015_RLatLon0.09_PT044H.grib2 2026-05-04 02:55 788K